Location: Unspecified
(16.4330°N, 0.0000°E)
Time: 08:12:10
(UTC+00:00)

ISS - Visible Passes

Search period start: 21 April 2019 00:00
Search period end: 01 May 2019 00:00
Orbit: 408 x 410 km, 51.6° (Epoch: 21 April)

Date Brightness Start Highest point End Pass type
(mag) Time Alt. Az. Time Alt. Az. Time Alt. Az.
22 Apr -2.7 05:09:22 10° SSW 05:12:31 44° SE 05:15:40 10° NE visible
23 Apr -1.3 04:19:48 11° SSE 04:21:49 18° SE 04:24:09 10° E visible
24 Apr -3.1 05:04:34 12° WSW 05:07:24 38° NW 05:10:30 10° NNE visible
25 Apr -3.9 04:16:24 72° S 04:16:37 77° SE 04:19:54 10° NE visible
26 Apr -0.6 03:28:07 14° ENE 03:28:07 14° ENE 03:28:45 10° ENE visible
26 Apr -1.4 05:01:18 10° WNW 05:02:24 11° NW 05:03:29 10° NNW visible
27 Apr -1.9 04:12:28 21° NNW 04:12:28 21° NNW 04:14:14 10° N visible
